Year,Month,Day,Hour,Minute,Value (Times are PST for temperature in C)
2015,09,27,00,00,6.50
2015,09,27,00,01,6.50
2015,09,27,00,02,6.50
2015,09,27,00,03,6.50
2015,09,27,00,04,6.50
2015,09,27,00,05,6.50
2015,09,27,00,06,6.50
2015,09,27,00,07,6.40
2015,09,27,00,08,6.40
2015,09,27,00,09,6.40
2015,09,27,00,10,6.40
2015,09,27,00,11,6.40
2015,09,27,00,12,6.40
2015,09,27,00,13,6.40
2015,09,27,00,14,6.30
2015,09,27,00,15,6.30
2015,09,27,00,16,6.30
2015,09,27,00,17,6.30
2015,09,27,00,18,6.30
2015,09,27,00,19,6.30
2015,09,27,00,20,6.30
2015,09,27,00,21,6.30
2015,09,27,00,22,6.30
2015,09,27,00,23,6.30
2015,09,27,00,24,6.30
2015,09,27,00,25,6.30
2015,09,27,00,26,6.30
2015,09,27,00,27,6.30
2015,09,27,00,28,6.20
2015,09,27,00,29,6.20
2015,09,27,00,30,6.20
2015,09,27,00,31,6.20
2015,09,27,00,32,6.20
2015,09,27,00,33,6.20
2015,09,27,00,34,6.20
2015,09,27,00,35,6.20
2015,09,27,00,36,6.20
2015,09,27,00,37,6.20
2015,09,27,00,38,6.10
2015,09,27,00,39,6.10
2015,09,27,00,40,6.10
2015,09,27,00,41,6.00
2015,09,27,00,42,6.00
2015,09,27,00,43,6.00
2015,09,27,00,44,6.00
2015,09,27,00,45,5.90
2015,09,27,00,46,5.90
2015,09,27,00,47,5.90
2015,09,27,00,48,5.90
2015,09,27,00,49,5.90
2015,09,27,00,50,5.80
2015,09,27,00,51,5.80
2015,09,27,00,52,5.80
2015,09,27,00,53,5.80
2015,09,27,00,54,5.80
2015,09,27,00,55,5.90
2015,09,27,00,56,5.90
2015,09,27,00,57,5.90
2015,09,27,00,58,6.00
2015,09,27,00,59,6.00
2015,09,27,01,00,6.00
2015,09,27,01,01,6.00
2015,09,27,01,02,6.00
2015,09,27,01,03,6.00
2015,09,27,01,04,6.00
2015,09,27,01,05,6.00
2015,09,27,01,06,6.00
2015,09,27,01,07,6.00
2015,09,27,01,08,5.90
2015,09,27,01,09,5.90
2015,09,27,01,10,5.90
2015,09,27,01,11,5.90
2015,09,27,01,12,5.90
2015,09,27,01,13,5.90
2015,09,27,01,14,5.90
2015,09,27,01,15,5.90
2015,09,27,01,16,5.90
2015,09,27,01,17,5.90
2015,09,27,01,18,5.90
2015,09,27,01,19,5.90
2015,09,27,01,20,5.90
2015,09,27,01,21,5.90
2015,09,27,01,22,5.80
2015,09,27,01,23,5.80
2015,09,27,01,24,5.80
2015,09,27,01,25,5.80
2015,09,27,01,26,5.80
2015,09,27,01,27,5.80
2015,09,27,01,28,5.80
2015,09,27,01,29,5.80
2015,09,27,01,30,5.80
2015,09,27,01,31,5.70
2015,09,27,01,32,5.70
2015,09,27,01,33,5.70
2015,09,27,01,34,5.70
2015,09,27,01,35,5.70
2015,09,27,01,36,5.70
2015,09,27,01,37,5.70
2015,09,27,01,38,5.70
2015,09,27,01,39,5.70
2015,09,27,01,40,5.70
2015,09,27,01,41,5.70
2015,09,27,01,42,5.70
2015,09,27,01,43,5.60
2015,09,27,01,44,5.60
2015,09,27,01,45,5.60
2015,09,27,01,46,5.60
2015,09,27,01,47,5.60
2015,09,27,01,48,5.60
2015,09,27,01,49,5.50
2015,09,27,01,50,5.60
2015,09,27,01,51,5.60
2015,09,27,01,52,5.60
2015,09,27,01,53,5.60
2015,09,27,01,54,5.60
2015,09,27,01,55,5.60
2015,09,27,01,56,5.60
2015,09,27,01,57,5.60
2015,09,27,01,58,5.60
2015,09,27,01,59,5.60
2015,09,27,02,00,5.60
2015,09,27,02,01,5.60
2015,09,27,02,02,5.70
2015,09,27,02,03,5.70
2015,09,27,02,04,5.60
2015,09,27,02,05,5.60
2015,09,27,02,06,5.60
2015,09,27,02,07,5.60
2015,09,27,02,08,5.50
2015,09,27,02,09,5.50
2015,09,27,02,10,5.50
2015,09,27,02,11,5.50
2015,09,27,02,12,5.40
2015,09,27,02,13,5.40
2015,09,27,02,14,5.40
2015,09,27,02,15,5.40
2015,09,27,02,16,5.40
2015,09,27,02,17,5.40
2015,09,27,02,18,5.30
2015,09,27,02,19,5.30
2015,09,27,02,20,5.30
2015,09,27,02,21,5.30
2015,09,27,02,22,5.30
2015,09,27,02,23,5.30
2015,09,27,02,24,5.30
2015,09,27,02,25,5.30
2015,09,27,02,26,5.20
2015,09,27,02,27,5.20
2015,09,27,02,28,5.20
2015,09,27,02,29,5.20
2015,09,27,02,30,5.20
2015,09,27,02,31,5.20
2015,09,27,02,32,5.20
2015,09,27,02,33,5.20
2015,09,27,02,34,5.30
2015,09,27,02,35,5.30
2015,09,27,02,36,5.30
2015,09,27,02,37,5.30
2015,09,27,02,38,5.30
2015,09,27,02,39,5.30
2015,09,27,02,40,5.30
2015,09,27,02,41,5.30
2015,09,27,02,42,5.30
2015,09,27,02,43,5.30
2015,09,27,02,44,5.30
2015,09,27,02,45,5.30
2015,09,27,02,46,5.30
2015,09,27,02,47,5.30
2015,09,27,02,48,5.30
2015,09,27,02,49,5.30
2015,09,27,02,50,5.30
2015,09,27,02,51,5.20
2015,09,27,02,52,5.20
2015,09,27,02,53,5.20
2015,09,27,02,54,5.20
2015,09,27,02,55,5.20
2015,09,27,02,56,5.20
2015,09,27,02,57,5.20
2015,09,27,02,58,5.20
2015,09,27,02,59,5.20
2015,09,27,03,00,5.10
2015,09,27,03,01,5.10
2015,09,27,03,02,5.10
2015,09,27,03,03,5.10
2015,09,27,03,04,5.10
2015,09,27,03,05,5.10
2015,09,27,03,06,5.10
2015,09,27,03,07,5.10
2015,09,27,03,08,5.10
2015,09,27,03,09,5.10
2015,09,27,03,10,5.10
2015,09,27,03,11,5.10
2015,09,27,03,12,5.00
2015,09,27,03,13,5.10
2015,09,27,03,14,5.10
2015,09,27,03,15,5.00
2015,09,27,03,16,5.10
2015,09,27,03,17,5.10
2015,09,27,03,18,5.10
2015,09,27,03,19,5.10
2015,09,27,03,20,5.10
2015,09,27,03,21,5.10
2015,09,27,03,22,5.10
2015,09,27,03,23,5.00
2015,09,27,03,24,5.00
2015,09,27,03,25,5.00
2015,09,27,03,26,5.00
2015,09,27,03,27,5.00
2015,09,27,03,28,5.00
2015,09,27,03,29,4.90
2015,09,27,03,30,5.00
2015,09,27,03,31,5.00
2015,09,27,03,32,5.00
2015,09,27,03,33,5.00
2015,09,27,03,34,5.00
2015,09,27,03,35,5.00
2015,09,27,03,36,5.10
2015,09,27,03,37,5.10
2015,09,27,03,38,5.10
2015,09,27,03,39,5.10
2015,09,27,03,40,5.00
2015,09,27,03,41,5.00
2015,09,27,03,42,5.00
2015,09,27,03,43,5.00
2015,09,27,03,44,5.00
2015,09,27,03,45,5.00
2015,09,27,03,46,5.00
2015,09,27,03,47,5.00
2015,09,27,03,48,5.00
2015,09,27,03,49,5.00
2015,09,27,03,50,4.90
2015,09,27,03,51,4.90
2015,09,27,03,52,4.90
2015,09,27,03,53,4.90
2015,09,27,03,54,5.00
2015,09,27,03,55,5.00
2015,09,27,03,56,5.00
2015,09,27,03,57,5.00
2015,09,27,03,58,5.00
2015,09,27,03,59,5.00
2015,09,27,04,00,5.00
2015,09,27,04,01,4.90
2015,09,27,04,02,4.90
2015,09,27,04,03,4.90
2015,09,27,04,04,4.90
2015,09,27,04,05,5.00
2015,09,27,04,06,5.00
2015,09,27,04,07,5.00
2015,09,27,04,08,5.00
2015,09,27,04,09,4.90
2015,09,27,04,10,4.90
2015,09,27,04,11,4.90
2015,09,27,04,12,4.90
2015,09,27,04,13,4.90
2015,09,27,04,14,4.90
2015,09,27,04,15,4.80
2015,09,27,04,16,4.90
2015,09,27,04,17,4.90
2015,09,27,04,18,4.90
2015,09,27,04,19,4.90
2015,09,27,04,20,5.00
2015,09,27,04,21,5.10
2015,09,27,04,22,5.10
2015,09,27,04,23,5.00
2015,09,27,04,24,5.00
2015,09,27,04,25,5.00
2015,09,27,04,26,5.00
2015,09,27,04,27,5.00
2015,09,27,04,28,4.90
2015,09,27,04,29,4.90
2015,09,27,04,30,4.90
2015,09,27,04,31,4.90
2015,09,27,04,32,4.90
2015,09,27,04,33,4.90
2015,09,27,04,34,4.90
2015,09,27,04,35,4.90
2015,09,27,04,36,4.80
2015,09,27,04,37,4.80
2015,09,27,04,38,4.80
2015,09,27,04,39,4.80
2015,09,27,04,40,4.70
2015,09,27,04,41,4.70
2015,09,27,04,42,4.70
2015,09,27,04,43,4.70
2015,09,27,04,44,4.70
2015,09,27,04,45,4.70
2015,09,27,04,46,4.70
2015,09,27,04,47,4.70
2015,09,27,04,48,4.70
2015,09,27,04,49,4.70
2015,09,27,04,50,4.70
2015,09,27,04,51,4.70
2015,09,27,04,52,4.70
2015,09,27,04,53,4.70
2015,09,27,04,54,4.80
2015,09,27,04,55,4.80
2015,09,27,04,56,4.80
2015,09,27,04,57,4.80
2015,09,27,04,58,4.80
2015,09,27,04,59,4.80
2015,09,27,05,00,4.80
2015,09,27,05,01,4.80
2015,09,27,05,02,4.80
2015,09,27,05,03,4.80
2015,09,27,05,04,4.90
2015,09,27,05,05,5.00
2015,09,27,05,06,5.00
2015,09,27,05,07,5.10
2015,09,27,05,08,5.10
2015,09,27,05,09,5.10
2015,09,27,05,10,5.10
2015,09,27,05,11,5.10
2015,09,27,05,12,5.10
2015,09,27,05,13,5.10
2015,09,27,05,14,5.00
2015,09,27,05,15,5.00
2015,09,27,05,16,4.90
2015,09,27,05,17,4.90
2015,09,27,05,18,4.80
2015,09,27,05,19,4.80
2015,09,27,05,20,4.80
2015,09,27,05,21,4.80
2015,09,27,05,22,4.80
2015,09,27,05,23,4.80
2015,09,27,05,24,4.80
2015,09,27,05,25,4.80
2015,09,27,05,26,4.80
2015,09,27,05,27,4.80
2015,09,27,05,28,4.80
2015,09,27,05,29,4.80
2015,09,27,05,30,4.80
2015,09,27,05,31,4.80
2015,09,27,05,32,4.80
2015,09,27,05,33,4.80
2015,09,27,05,34,4.80
2015,09,27,05,35,4.80
2015,09,27,05,36,4.80
2015,09,27,05,37,4.80
2015,09,27,05,38,4.80
2015,09,27,05,39,4.80
2015,09,27,05,40,4.80
2015,09,27,05,41,4.80
2015,09,27,05,42,4.80
2015,09,27,05,43,4.80
2015,09,27,05,44,4.80
2015,09,27,05,45,4.80
2015,09,27,05,46,4.80
2015,09,27,05,47,4.80
2015,09,27,05,48,4.80
2015,09,27,05,49,4.70
2015,09,27,05,50,4.70
2015,09,27,05,51,4.70
2015,09,27,05,52,4.70
2015,09,27,05,53,4.70
2015,09,27,05,54,4.70
2015,09,27,05,55,4.70
2015,09,27,05,56,4.70
2015,09,27,05,57,4.70
2015,09,27,05,58,4.70
2015,09,27,05,59,4.70
2015,09,27,06,00,4.70
2015,09,27,06,01,4.70
2015,09,27,06,02,4.70
2015,09,27,06,03,4.60
2015,09,27,06,04,4.70
2015,09,27,06,05,4.60
2015,09,27,06,06,4.60
2015,09,27,06,07,4.70
2015,09,27,06,08,4.70
2015,09,27,06,09,4.70
2015,09,27,06,10,4.70
2015,09,27,06,11,4.70
2015,09,27,06,12,4.70
2015,09,27,06,13,4.70
2015,09,27,06,14,4.70
2015,09,27,06,15,4.70
2015,09,27,06,16,4.80
2015,09,27,06,17,4.80
2015,09,27,06,18,4.80
2015,09,27,06,19,4.80
2015,09,27,06,20,4.80
2015,09,27,06,21,4.80
2015,09,27,06,22,4.80
2015,09,27,06,23,4.70
2015,09,27,06,24,4.70
2015,09,27,06,25,4.70
2015,09,27,06,26,4.70
2015,09,27,06,27,4.70
2015,09,27,06,28,4.70
2015,09,27,06,29,4.70
2015,09,27,06,30,4.70
2015,09,27,06,31,4.70
2015,09,27,06,32,4.70
2015,09,27,06,33,4.70
2015,09,27,06,34,4.60
2015,09,27,06,35,4.60
2015,09,27,06,36,4.60
2015,09,27,06,37,4.70
2015,09,27,06,38,4.60
2015,09,27,06,39,4.60
2015,09,27,06,40,4.60
2015,09,27,06,41,4.60
2015,09,27,06,42,4.60
2015,09,27,06,43,4.60
2015,09,27,06,44,4.60
2015,09,27,06,45,4.70
2015,09,27,06,46,4.70
2015,09,27,06,47,4.80
2015,09,27,06,48,4.90
2015,09,27,06,49,4.90
2015,09,27,06,50,5.00
2015,09,27,06,51,5.00
2015,09,27,06,52,5.00
2015,09,27,06,53,5.00
2015,09,27,06,54,5.00
2015,09,27,06,55,4.90
2015,09,27,06,56,4.90
2015,09,27,06,57,4.90
2015,09,27,06,58,4.80
2015,09,27,06,59,4.80
2015,09,27,07,00,4.70
2015,09,27,07,01,4.70
2015,09,27,07,02,4.70
2015,09,27,07,03,4.70
2015,09,27,07,04,4.70
2015,09,27,07,05,4.70
2015,09,27,07,06,4.70
2015,09,27,07,07,4.70
2015,09,27,07,08,4.80
2015,09,27,07,09,4.80
2015,09,27,07,10,4.80
2015,09,27,07,11,4.90
2015,09,27,07,12,4.90
2015,09,27,07,13,4.90
2015,09,27,07,14,4.90
2015,09,27,07,15,4.90
2015,09,27,07,16,4.90
2015,09,27,07,17,4.80
2015,09,27,07,18,4.80
2015,09,27,07,19,4.80
2015,09,27,07,20,4.80
2015,09,27,07,21,4.80
2015,09,27,07,22,4.80
2015,09,27,07,23,4.80
2015,09,27,07,24,4.90
2015,09,27,07,25,4.90
2015,09,27,07,26,4.90
2015,09,27,07,27,4.90
2015,09,27,07,28,4.90
2015,09,27,07,29,4.90
2015,09,27,07,30,4.90
2015,09,27,07,31,4.90
2015,09,27,07,32,5.00
2015,09,27,07,33,5.10
2015,09,27,07,34,5.10
2015,09,27,07,35,5.20
2015,09,27,07,36,5.30
2015,09,27,07,37,5.30
2015,09,27,07,38,5.30
2015,09,27,07,39,5.30
2015,09,27,07,40,5.30
2015,09,27,07,41,5.30
2015,09,27,07,42,5.30
2015,09,27,07,43,5.30
2015,09,27,07,44,5.30
2015,09,27,07,45,5.30
2015,09,27,07,46,5.30
2015,09,27,07,47,5.30
2015,09,27,07,48,5.30
2015,09,27,07,49,5.40
2015,09,27,07,50,5.40
2015,09,27,07,51,5.40
2015,09,27,07,52,5.30
2015,09,27,07,53,5.30
2015,09,27,07,54,5.30
2015,09,27,07,55,5.30
2015,09,27,07,56,5.30
2015,09,27,07,57,5.30
2015,09,27,07,58,5.30
2015,09,27,07,59,5.30
2015,09,27,08,00,5.30
2015,09,27,08,01,5.30
2015,09,27,08,02,5.30
2015,09,27,08,03,5.30
2015,09,27,08,04,5.30
2015,09,27,08,05,5.30
2015,09,27,08,06,5.30
2015,09,27,08,07,5.30
2015,09,27,08,08,5.30
2015,09,27,08,09,5.30
2015,09,27,08,10,5.30
2015,09,27,08,11,5.30
2015,09,27,08,12,5.30
2015,09,27,08,13,5.30
2015,09,27,08,14,5.30
2015,09,27,08,15,5.30
2015,09,27,08,16,5.30
2015,09,27,08,17,5.30
2015,09,27,08,18,5.40
2015,09,27,08,19,5.40
2015,09,27,08,20,5.40
2015,09,27,08,21,5.40
2015,09,27,08,22,5.40
2015,09,27,08,23,5.40
2015,09,27,08,24,5.40
2015,09,27,08,25,5.40
2015,09,27,08,26,5.40
2015,09,27,08,27,5.40
2015,09,27,08,28,5.40
2015,09,27,08,29,5.40
2015,09,27,08,30,5.40
2015,09,27,08,31,5.40
2015,09,27,08,32,5.40
2015,09,27,08,33,5.40
2015,09,27,08,34,5.40
2015,09,27,08,35,5.40
2015,09,27,08,36,5.40
2015,09,27,08,37,5.40
2015,09,27,08,38,5.40
2015,09,27,08,39,5.40
2015,09,27,08,40,5.40
2015,09,27,08,41,5.40
2015,09,27,08,42,5.40
2015,09,27,08,43,5.40
2015,09,27,08,44,5.40
2015,09,27,08,45,5.40
2015,09,27,08,46,5.50
2015,09,27,08,47,5.50
2015,09,27,08,48,5.50
2015,09,27,08,49,5.50
2015,09,27,08,50,5.50
2015,09,27,08,51,5.50
2015,09,27,08,52,5.50
2015,09,27,08,53,5.60
2015,09,27,08,54,5.60
2015,09,27,08,55,5.50
2015,09,27,08,56,5.50
2015,09,27,08,57,5.50
2015,09,27,08,58,5.50
2015,09,27,08,59,5.50
2015,09,27,09,00,5.50
2015,09,27,09,01,5.50
2015,09,27,09,02,5.40
2015,09,27,09,03,5.40
2015,09,27,09,04,5.40
2015,09,27,09,05,5.40
2015,09,27,09,06,5.40
2015,09,27,09,07,5.50
2015,09,27,09,08,5.50
2015,09,27,09,09,5.50
2015,09,27,09,10,5.50
2015,09,27,09,11,5.50
2015,09,27,09,12,5.50
2015,09,27,09,13,5.50
2015,09,27,09,14,5.60
2015,09,27,09,15,5.60
2015,09,27,09,16,5.60
2015,09,27,09,17,5.60
2015,09,27,09,18,5.60
2015,09,27,09,19,5.60
2015,09,27,09,20,5.60
2015,09,27,09,21,5.60
2015,09,27,09,22,5.60
2015,09,27,09,23,5.60
2015,09,27,09,24,5.60
2015,09,27,09,25,5.60
2015,09,27,09,26,5.60
2015,09,27,09,27,5.60
2015,09,27,09,28,5.60
2015,09,27,09,29,5.60
2015,09,27,09,30,5.60
2015,09,27,09,31,5.70
2015,09,27,09,32,5.70
2015,09,27,09,33,5.70
2015,09,27,09,34,5.70
2015,09,27,09,35,5.70
2015,09,27,09,36,5.70
2015,09,27,09,37,5.80
2015,09,27,09,38,5.80
2015,09,27,09,39,5.80
2015,09,27,09,40,5.80
2015,09,27,09,41,5.80
2015,09,27,09,42,5.80
2015,09,27,09,43,5.80
2015,09,27,09,44,5.80
2015,09,27,09,45,5.90
2015,09,27,09,46,5.90
2015,09,27,09,47,5.90
2015,09,27,09,48,6.00
2015,09,27,09,49,6.10
2015,09,27,09,50,6.10
2015,09,27,09,51,6.10
2015,09,27,09,52,6.20
2015,09,27,09,53,6.20
2015,09,27,09,54,6.20
2015,09,27,09,55,6.20
2015,09,27,09,56,6.20
2015,09,27,09,57,6.20
2015,09,27,09,58,6.30
2015,09,27,09,59,6.30
2015,09,27,10,00,6.30
2015,09,27,10,01,6.40
2015,09,27,10,02,6.40
2015,09,27,10,03,6.50
2015,09,27,10,04,6.60
2015,09,27,10,05,6.60
2015,09,27,10,06,6.60
2015,09,27,10,07,6.70
2015,09,27,10,08,6.70
2015,09,27,10,09,6.80
2015,09,27,10,10,6.90
2015,09,27,10,11,6.90
2015,09,27,10,12,7.00
2015,09,27,10,13,7.00
2015,09,27,10,14,7.10
2015,09,27,10,15,7.20
2015,09,27,10,16,7.30
2015,09,27,10,17,7.40
2015,09,27,10,18,7.50
2015,09,27,10,19,7.60
2015,09,27,10,20,7.60
2015,09,27,10,21,7.70
2015,09,27,10,22,7.70
2015,09,27,10,23,7.80
2015,09,27,10,24,7.90
2015,09,27,10,25,7.90
2015,09,27,10,26,8.00
2015,09,27,10,27,8.00
2015,09,27,10,28,8.10
2015,09,27,10,29,8.10
2015,09,27,10,30,8.20
2015,09,27,10,31,8.30
2015,09,27,10,32,8.30
2015,09,27,10,33,8.40
2015,09,27,10,34,8.40
2015,09,27,10,35,8.50
2015,09,27,10,36,8.60
2015,09,27,10,37,8.70
2015,09,27,10,38,8.80
2015,09,27,10,39,8.90
2015,09,27,10,40,9.00
2015,09,27,10,41,9.00
2015,09,27,10,42,9.10
2015,09,27,10,43,9.20
2015,09,27,10,44,9.30
2015,09,27,10,45,9.40
2015,09,27,10,46,9.50
2015,09,27,10,47,9.60
2015,09,27,10,48,9.70
2015,09,27,10,49,9.80
2015,09,27,10,50,9.90
2015,09,27,10,51,10.00
2015,09,27,10,52,10.10
2015,09,27,10,53,10.10
2015,09,27,10,54,10.20
2015,09,27,10,55,10.30
2015,09,27,10,56,10.40
2015,09,27,10,57,10.50
2015,09,27,10,58,10.70
2015,09,27,10,59,10.70
2015,09,27,11,00,10.70
2015,09,27,11,01,10.70
2015,09,27,11,02,10.80
2015,09,27,11,03,10.80
2015,09,27,11,04,10.80
2015,09,27,11,05,10.80
2015,09,27,11,06,10.80
2015,09,27,11,07,10.70
2015,09,27,11,08,10.70
2015,09,27,11,09,10.70
2015,09,27,11,10,10.80
2015,09,27,11,11,10.80
2015,09,27,11,12,10.90
2015,09,27,11,13,10.90
2015,09,27,11,14,10.90
2015,09,27,11,15,11.00
2015,09,27,11,16,11.10
2015,09,27,11,17,11.20
2015,09,27,11,18,11.30
2015,09,27,11,19,11.40
2015,09,27,11,20,11.40
2015,09,27,11,21,11.50
2015,09,27,11,22,11.60
2015,09,27,11,23,11.70
2015,09,27,11,24,11.70
2015,09,27,11,25,11.80
2015,09,27,11,26,12.00
2015,09,27,11,27,12.00
2015,09,27,11,28,12.10
2015,09,27,11,29,12.20
2015,09,27,11,30,12.20
2015,09,27,11,31,12.30
2015,09,27,11,32,12.40
2015,09,27,11,33,12.50
2015,09,27,11,34,12.60
2015,09,27,11,35,12.70
2015,09,27,11,36,12.80
2015,09,27,11,37,12.90
2015,09,27,11,38,13.00
2015,09,27,11,39,13.00
2015,09,27,11,40,13.10
2015,09,27,11,41,13.20
2015,09,27,11,42,13.20
2015,09,27,11,43,13.30
2015,09,27,11,44,13.40
2015,09,27,11,45,13.40
2015,09,27,11,46,13.50
2015,09,27,11,47,13.60
2015,09,27,11,48,13.70
2015,09,27,11,49,13.80
2015,09,27,11,50,13.80
2015,09,27,11,51,13.90
2015,09,27,11,52,14.00
2015,09,27,11,53,14.10
2015,09,27,11,54,14.10
2015,09,27,11,55,14.20
2015,09,27,11,56,14.30
2015,09,27,11,57,14.30
2015,09,27,11,58,14.30
2015,09,27,11,59,14.30
2015,09,27,12,00,14.30
2015,09,27,12,01,14.30
2015,09,27,12,02,14.30
2015,09,27,12,03,14.30
2015,09,27,12,04,14.30
2015,09,27,12,05,14.30
2015,09,27,12,06,14.30
2015,09,27,12,07,14.40
2015,09,27,12,08,14.50
2015,09,27,12,09,14.60
2015,09,27,12,10,14.70
2015,09,27,12,11,14.70
2015,09,27,12,12,14.80
2015,09,27,12,13,14.80
2015,09,27,12,14,14.90
2015,09,27,12,15,14.90
2015,09,27,12,16,15.00
2015,09,27,12,17,15.00
2015,09,27,12,18,15.10
2015,09,27,12,19,15.10
2015,09,27,12,20,15.20
2015,09,27,12,21,15.20
2015,09,27,12,22,15.20
2015,09,27,12,23,15.30
2015,09,27,12,24,15.30
2015,09,27,12,25,15.30
2015,09,27,12,26,15.30
2015,09,27,12,27,15.20
2015,09,27,12,28,15.20
2015,09,27,12,29,15.30
2015,09,27,12,30,15.30
2015,09,27,12,31,15.30
2015,09,27,12,32,15.40
2015,09,27,12,33,15.50
2015,09,27,12,34,15.60
2015,09,27,12,35,15.70
2015,09,27,12,36,15.80
2015,09,27,12,37,15.90
2015,09,27,12,38,16.00
2015,09,27,12,39,16.10
2015,09,27,12,40,16.10
2015,09,27,12,41,16.20
2015,09,27,12,42,16.20
2015,09,27,12,43,16.20
2015,09,27,12,44,16.30
2015,09,27,12,45,16.30
2015,09,27,12,46,16.40
2015,09,27,12,47,16.50
2015,09,27,12,48,16.60
2015,09,27,12,49,16.70
2015,09,27,12,50,16.70
2015,09,27,12,51,16.70
2015,09,27,12,52,16.70
2015,09,27,12,53,16.70
2015,09,27,12,54,16.70
2015,09,27,12,55,16.70
2015,09,27,12,56,16.60
2015,09,27,12,57,16.60
2015,09,27,12,58,16.60
2015,09,27,12,59,16.60
2015,09,27,13,00,16.60
2015,09,27,13,01,16.60
2015,09,27,13,02,16.60
2015,09,27,13,03,16.60
2015,09,27,13,04,16.60
2015,09,27,13,05,16.60
2015,09,27,13,06,16.70
2015,09,27,13,07,16.80
2015,09,27,13,08,16.80
2015,09,27,13,09,16.90
2015,09,27,13,10,17.00
2015,09,27,13,11,17.00
2015,09,27,13,12,17.10
2015,09,27,13,13,17.20
2015,09,27,13,14,17.30
2015,09,27,13,15,17.40
2015,09,27,13,16,17.50
2015,09,27,13,17,17.60
2015,09,27,13,18,17.60
2015,09,27,13,19,17.70
2015,09,27,13,20,17.70
2015,09,27,13,21,17.70
2015,09,27,13,22,17.70
2015,09,27,13,23,17.70
2015,09,27,13,24,17.80
2015,09,27,13,25,17.80
2015,09,27,13,26,17.80
2015,09,27,13,27,17.90
2015,09,27,13,28,18.00
2015,09,27,13,29,18.00
2015,09,27,13,30,18.00
2015,09,27,13,31,18.00
2015,09,27,13,32,18.00
2015,09,27,13,33,18.00
2015,09,27,13,34,17.90
2015,09,27,13,35,17.80
2015,09,27,13,36,17.80
2015,09,27,13,37,17.70
2015,09,27,13,38,17.70
2015,09,27,13,39,17.70
2015,09,27,13,40,17.70
2015,09,27,13,41,17.70
2015,09,27,13,42,17.70
2015,09,27,13,43,17.70
2015,09,27,13,44,17.80
2015,09,27,13,45,17.90
2015,09,27,13,46,17.90
2015,09,27,13,47,17.90
2015,09,27,13,48,17.90
2015,09,27,13,49,17.80
2015,09,27,13,50,17.80
2015,09,27,13,51,17.80
2015,09,27,13,52,17.80
2015,09,27,13,53,17.80
2015,09,27,13,54,17.80
2015,09,27,13,55,17.90
2015,09,27,13,56,17.90
2015,09,27,13,57,18.00
2015,09,27,13,58,18.00
2015,09,27,13,59,18.10
2015,09,27,14,00,18.10
2015,09,27,14,01,18.20
2015,09,27,14,02,18.20
2015,09,27,14,03,18.20
2015,09,27,14,04,18.20
2015,09,27,14,05,18.20
2015,09,27,14,06,18.20
2015,09,27,14,07,18.20
2015,09,27,14,08,18.30
2015,09,27,14,09,18.30
2015,09,27,14,10,18.30
2015,09,27,14,11,18.30
2015,09,27,14,12,18.30
2015,09,27,14,13,18.40
2015,09,27,14,14,18.40
2015,09,27,14,15,18.40
2015,09,27,14,16,18.50
2015,09,27,14,17,18.50
2015,09,27,14,18,18.60
2015,09,27,14,19,18.60
2015,09,27,14,20,18.70
2015,09,27,14,21,18.70
2015,09,27,14,22,18.80
2015,09,27,14,23,18.80
2015,09,27,14,24,18.80
2015,09,27,14,25,18.90
2015,09,27,14,26,19.00
2015,09,27,14,27,19.10
2015,09,27,14,28,19.10
2015,09,27,14,29,19.20
2015,09,27,14,30,19.30
2015,09,27,14,31,19.30
2015,09,27,14,32,19.30
2015,09,27,14,33,19.30
2015,09,27,14,34,19.40
2015,09,27,14,35,19.50
2015,09,27,14,36,19.50
2015,09,27,14,37,19.60
2015,09,27,14,38,19.60
2015,09,27,14,39,19.70
2015,09,27,14,40,19.70
2015,09,27,14,41,19.80
2015,09,27,14,42,19.80
2015,09,27,14,43,19.80
2015,09,27,14,44,19.80
2015,09,27,14,45,19.80
2015,09,27,14,46,19.80
2015,09,27,14,47,19.80
2015,09,27,14,48,19.80
2015,09,27,14,49,19.70
2015,09,27,14,50,19.70
2015,09,27,14,51,19.70
2015,09,27,14,52,19.70
2015,09,27,14,53,19.70
2015,09,27,14,54,19.70
2015,09,27,14,55,19.70
2015,09,27,14,56,19.80
2015,09,27,14,57,19.80
2015,09,27,14,58,19.80
2015,09,27,14,59,19.80
2015,09,27,15,00,19.80
2015,09,27,15,01,19.80
2015,09,27,15,02,19.70
2015,09,27,15,03,19.60
2015,09,27,15,04,19.60
2015,09,27,15,05,19.60
2015,09,27,15,06,19.60
2015,09,27,15,07,19.60
2015,09,27,15,08,19.60
2015,09,27,15,09,19.60
2015,09,27,15,10,19.60
2015,09,27,15,11,19.70
2015,09,27,15,12,19.70
2015,09,27,15,13,19.70
2015,09,27,15,14,19.60
2015,09,27,15,15,19.60
2015,09,27,15,16,19.60
2015,09,27,15,17,19.70
2015,09,27,15,18,19.70
2015,09,27,15,19,19.60
2015,09,27,15,20,19.60
2015,09,27,15,21,19.60
2015,09,27,15,22,19.60
2015,09,27,15,23,19.60
2015,09,27,15,24,19.60
2015,09,27,15,25,19.60
2015,09,27,15,26,19.60
2015,09,27,15,27,19.60
2015,09,27,15,28,19.70
2015,09,27,15,29,19.60
2015,09,27,15,30,19.60
2015,09,27,15,31,19.60
2015,09,27,15,32,19.60
2015,09,27,15,33,19.60
2015,09,27,15,34,19.60
2015,09,27,15,35,19.60
2015,09,27,15,36,19.60
2015,09,27,15,37,19.60
2015,09,27,15,38,19.60
2015,09,27,15,39,19.60
2015,09,27,15,40,19.60
2015,09,27,15,41,19.60
2015,09,27,15,42,19.60
2015,09,27,15,43,19.60
2015,09,27,15,44,19.60
2015,09,27,15,45,19.60
2015,09,27,15,46,19.60
2015,09,27,15,47,19.60
2015,09,27,15,48,19.70
2015,09,27,15,49,19.60
2015,09,27,15,50,19.60
2015,09,27,15,51,19.60
2015,09,27,15,52,19.60
2015,09,27,15,53,19.60
2015,09,27,15,54,19.60
2015,09,27,15,55,19.60
2015,09,27,15,56,19.60
2015,09,27,15,57,19.70
2015,09,27,15,58,19.70
2015,09,27,15,59,19.70
2015,09,27,16,00,19.60
2015,09,27,16,01,19.60
2015,09,27,16,02,19.60
2015,09,27,16,03,19.50
2015,09,27,16,04,19.50
2015,09,27,16,05,19.50
2015,09,27,16,06,19.50
2015,09,27,16,07,19.40
2015,09,27,16,08,19.40
2015,09,27,16,09,19.40
2015,09,27,16,10,19.40
2015,09,27,16,11,19.40
2015,09,27,16,12,19.40
2015,09,27,16,13,19.40
2015,09,27,16,14,19.40
2015,09,27,16,15,19.40
2015,09,27,16,16,19.50
2015,09,27,16,17,19.50
2015,09,27,16,18,19.50
2015,09,27,16,19,19.60
2015,09,27,16,20,19.60
2015,09,27,16,21,19.60
2015,09,27,16,22,19.60
2015,09,27,16,23,19.60
2015,09,27,16,24,19.50
2015,09,27,16,25,19.50
2015,09,27,16,26,19.40
2015,09,27,16,27,19.40
2015,09,27,16,28,19.40
2015,09,27,16,29,19.40
2015,09,27,16,30,19.30
2015,09,27,16,31,19.30
2015,09,27,16,32,19.30
2015,09,27,16,33,19.20
2015,09,27,16,34,19.20
2015,09,27,16,35,19.20
2015,09,27,16,36,19.20
2015,09,27,16,37,19.20
2015,09,27,16,38,19.20
2015,09,27,16,39,19.20
2015,09,27,16,40,19.20
2015,09,27,16,41,19.20
2015,09,27,16,42,19.20
2015,09,27,16,43,19.20
2015,09,27,16,44,19.10
2015,09,27,16,45,19.10
2015,09,27,16,46,19.10
2015,09,27,16,47,19.10
2015,09,27,16,48,19.00
2015,09,27,16,49,19.00
2015,09,27,16,50,18.90
2015,09,27,16,51,18.90
2015,09,27,16,52,18.80
2015,09,27,16,53,18.80
2015,09,27,16,54,18.80
2015,09,27,16,55,18.80
2015,09,27,16,56,18.80
2015,09,27,16,57,18.80
2015,09,27,16,58,18.70
2015,09,27,16,59,18.70
2015,09,27,17,00,18.70
2015,09,27,17,01,18.70
2015,09,27,17,02,18.70
2015,09,27,17,03,18.70
2015,09,27,17,04,18.60
2015,09,27,17,05,18.60
2015,09,27,17,06,18.60
2015,09,27,17,07,18.60
2015,09,27,17,08,18.60
2015,09,27,17,09,18.60
2015,09,27,17,10,18.60
2015,09,27,17,11,18.60
2015,09,27,17,12,18.60
2015,09,27,17,13,18.60
2015,09,27,17,14,18.60
2015,09,27,17,15,18.60
2015,09,27,17,16,18.60
2015,09,27,17,17,18.60
2015,09,27,17,18,18.50
2015,09,27,17,19,18.50
2015,09,27,17,20,18.40
2015,09,27,17,21,18.30
2015,09,27,17,22,18.30
2015,09,27,17,23,18.20
2015,09,27,17,24,18.20
2015,09,27,17,25,18.10
2015,09,27,17,26,18.10
2015,09,27,17,27,18.10
2015,09,27,17,28,18.00
2015,09,27,17,29,18.00
2015,09,27,17,30,18.10
2015,09,27,17,31,18.10
2015,09,27,17,32,18.10
2015,09,27,17,33,18.00
2015,09,27,17,34,17.90
2015,09,27,17,35,17.90
2015,09,27,17,36,17.90
2015,09,27,17,37,17.90
2015,09,27,17,38,18.00
2015,09,27,17,39,18.00
2015,09,27,17,40,18.00
2015,09,27,17,41,18.10
2015,09,27,17,42,18.00
2015,09,27,17,43,17.90
2015,09,27,17,44,17.80
2015,09,27,17,45,17.60
2015,09,27,17,46,17.50
2015,09,27,17,47,17.30